Home > Weather > Holon > Past weeks

Flag for Israel Past Weather in Holon, Israel — Yesterday and Last 2 Weeks

Now
66 °F

Passing clouds.


Feels Like: 66 °F
Forecast: 68 / 78 °F
Wind: 8 mph from South

Location: Ben Gurion International Airport

Current Time: May 29, 2016 at 5:00:14 AM

Latest Report: May 29, 2016 at 4:20 AM


Visibility: N/A

Pressure: 29.89 "Hg

Humidity: 78%

Dew Point: 59 °F

Location of HolonLocation

Past Weather in Holon — Graph

°F

Holon Temperature Yesterday

Maximum temperature yesterday: 77 °F (at 12:50 PM)
Minimum temperature yesterday: 66 °F (at 4:20 AM)
Average temperature yesterday: 71 °F

High & Low Weather Summary for the Past Weeks

 TemperatureHumidityPressure
High106 °F (May 15, 12:50 PM)88% (May 17, 6:50 AM)30.01 "Hg (May 17, 6:50 AM)
Low63 °F (May 20, 4:50 AM)9% (May 22, 11:50 AM)29.71 "Hg (May 16, 5:50 PM)
Average76 °F55%29.90 "Hg
* Reported May 14 3:20 AM — May 29 3:50 AM, Holon, Weather by CustomWeather, © 2016

Note: Actual official high and low records may vary slightly from our data, if they occured in-between our weather recording intervals... More about our weather records

Advertising

Holon Weather History for the Previous 24 Hours

Scroll right to see more
 ConditionsComfort  
Time TempWeatherWind HumidityBarometerVisibility
3:50 AM
Sun, May 29
66 °FPassing clouds.6 mph78%29.89 "HgN/A
1:20 AM68 °FPassing clouds.6 mph78%29.92 "HgN/A
12:50 AM68 °FPassing clouds.6 mph78%29.92 "HgN/A
12:20 AM70 °FPassing clouds.5 mph73%29.92 "HgN/A
11:50 PM
Sat, May 28
70 °FPassing clouds.6 mph73%29.92 "HgN/A
11:20 PM70 °FPassing clouds.6 mph73%29.92 "HgN/A
10:50 PM70 °FPassing clouds.6 mph73%29.92 "HgN/A
10:20 PM70 °FPassing clouds.6 mph73%29.92 "HgN/A
9:50 PM70 °FPassing clouds.6 mph73%29.92 "HgN/A
9:20 PM72 °FPassing clouds.7 mph69%29.92 "HgN/A
8:50 PM72 °FPassing clouds.9 mph69%29.92 "HgN/A
8:20 PM72 °FPartly sunny.12 mph69%29.92 "HgN/A
7:50 PM72 °FScattered clouds.10 mph69%29.89 "HgN/A
7:20 PM72 °FScattered clouds.10 mph69%29.89 "HgN/A
6:50 PM73 °FPartly sunny.13 mph65%29.89 "HgN/A
6:20 PM73 °FScattered clouds.14 mph65%29.89 "HgN/A
5:50 PM73 °FPartly sunny.14 mph65%29.89 "HgN/A
5:20 PM75 °FScattered clouds.15 mph61%29.86 "HgN/A
4:50 PM75 °FScattered clouds.14 mph61%29.86 "HgN/A
4:20 PM75 °FScattered clouds.17 mph61%29.89 "HgN/A
3:50 PM77 °FPartly sunny.16 mph57%29.86 "HgN/A
3:20 PM77 °FPartly sunny.18 mph54%29.89 "HgN/A
2:50 PM77 °FPartly sunny.18 mph57%29.89 "HgN/A
2:20 PM77 °FPartly sunny.16 mph54%29.89 "HgN/A
1:50 PM75 °FPartly sunny.17 mph57%29.89 "HgN/A
1:20 PM77 °FPartly sunny.16 mph54%29.89 "HgN/A
12:50 PM77 °FPartly sunny.18 mph54%29.89 "HgN/A
12:20 PM75 °FPartly sunny.18 mph54%29.89 "HgN/A
11:50 AM75 °FPartly sunny.16 mph54%29.89 "HgN/A
11:20 AM75 °FPartly sunny.16 mph57%29.89 "HgN/A
10:50 AM75 °FPartly sunny.16 mph57%29.89 "HgN/A
10:20 AM73 °FPartly sunny.16 mph65%29.89 "HgN/A
9:50 AM73 °FPartly sunny.14 mph65%29.89 "HgN/A
9:20 AM72 °FBroken clouds.9 mph73%29.89 "HgN/A
8:50 AM70 °FBroken clouds.6 mph78%29.89 "HgN/A
8:20 AM68 °FBroken clouds.3 mph83%29.89 "HgN/A
7:50 AM66 °FRain. Broken clouds.5 mph83%29.89 "HgN/A
7:20 AM68 °FLight rain. Scattered clouds.9 mph73%29.86 "HgN/A
6:50 AM68 °FScattered clouds.10 mph73%29.86 "HgN/A
6:20 AM66 °FPassing clouds.8 mph78%29.86 "HgN/A
5:50 AM66 °FPassing clouds.7 mph78%29.86 "HgN/A
5:20 AM66 °FPassing clouds.8 mph78%29.86 "HgN/A
Weather by CustomWeather, © 2016

See weather overviewHow to use our weather pages